| time (UTC) | temp F | wind direction | speed MPH | gust MPH | rain 1hr in | rain 24hr in | rain mn in | humidity % | barometer mb |
| 20260906160231 | 88 | 171 | 0.0 | 6.0 | 0.00 | 0.00 | 0.00 | 49 | 1019.2 |
| 20260906154731 | 88 | 119 | 2.0 | 4.0 | 0.00 | 0.00 | 0.00 | 49 | 1019.2 |
| 20260906153238 | 88 | 88 | 3.0 | 6.0 | 0.00 | 0.00 | 0.00 | 50 | 1019.2 |
| 20260906151737 | 88 | 149 | 2.0 | 5.0 | 0.00 | 0.00 | 0.00 | 50 | 1019.2 |
| 20260906150234 | 88 | 98 | 3.0 | 6.0 | 0.00 | 0.00 | 0.00 | 50 | 1019.3 |
| 20260906144737 | 88 | 142 | 2.0 | 3.0 | 0.00 | 0.00 | 0.00 | 50 | 1019.4 |
| 20260906143231 | 88 | 117 | 2.0 | 7.0 | 0.00 | 0.00 | 0.00 | 49 | 1019.5 |
| 20260906141721 | 88 | 84 | 1.0 | 4.0 | 0.00 | 0.00 | 0.00 | 51 | 1019.6 |
| 20260906140225 | 88 | 133 | 2.0 | 6.0 | 0.00 | 0.00 | 0.00 | 49 | 1019.6 |
| 20260906134721 | 88 | 81 | 2.0 | 6.0 | 0.00 | 0.00 | 0.00 | 51 | 1019.8 |
| 20260906133228 | 87 | 355 | 3.0 | 7.0 | 0.00 | 0.00 | 0.00 | 52 | 1019.9 |
| 20260906131723 | 87 | 84 | 4.0 | 8.0 | 0.00 | 0.00 | 0.00 | 51 | 1020.0 |
| 20260906130227 | 87 | 115 | 4.0 | 6.0 | 0.00 | 0.00 | 0.00 | 50 | 1020.1 |
| 20260906124732 | 87 | 44 | 1.0 | 5.0 | 0.00 | 0.00 | 0.00 | 52 | 1020.2 |
| 20260906123235 | 87 | 97 | 2.0 | 7.0 | 0.00 | 0.00 | 0.00 | 51 | 1020.3 |
| 20260906121730 | 88 | 129 | 3.0 | 7.0 | 0.00 | 0.00 | 0.00 | 49 | 1020.3 |
| 20260906120227 | 88 | 176 | 6.0 | 9.0 | 0.00 | 0.00 | 0.00 | 50 | 1020.4 |
| 20260906114724 | 87 | 99 | 1.0 | 4.0 | 0.00 | 0.00 | 0.00 | 48 | 1020.3 |
| 20260906113222 | 88 | 95 | 3.0 | 8.0 | 0.00 | 0.00 | 0.00 | 49 | 1020.5 |
| 20260906111729 | 87 | 131 | 5.0 | 9.0 | 0.00 | 0.00 | 0.00 | 48 | 1020.6 |
| 20260906110233 | 87 | 137 | 2.0 | 9.0 | 0.00 | 0.00 | 0.00 | 51 | 1020.7 |
| 20260906103237 | 87 | 157 | 5.0 | 9.0 | 0.00 | 0.00 | 0.00 | 51 | 1020.9 |
| 20260906101735 | 86 | 102 | 3.0 | 7.0 | 0.00 | 0.00 | 0.00 | 52 | 1020.9 |
| 20260906100223 | 87 | 93 | 5.0 | 8.0 | 0.00 | 0.00 | 0.00 | 50 | 1021.0 |
| 20260906094722 | 87 | 310 | 2.0 | 5.0 | 0.00 | 0.00 | 0.00 | 52 | 1021.0 |
| 20260906093223 | 86 | 35 | 2.0 | 4.0 | 0.00 | 0.00 | 0.00 | 53 | 1021.1 |
| 20260906091734 | 85 | 151 | 2.0 | 6.0 | 0.00 | 0.00 | 0.00 | 52 | 1021.2 |
| 20260906090228 | 86 | 157 | 3.0 | 6.0 | 0.00 | 0.00 | 0.00 | 52 | 1021.2 |
| 20260906084729 | 87 | 169 | 2.0 | 3.0 | 0.00 | 0.00 | 0.00 | 52 | 1021.1 |
| 20260906083221 | 86 | 173 | 1.0 | 5.0 | 0.00 | 0.00 | 0.00 | 56 | 1021.1 |
| 20260906081728 | 85 | 315 | 1.0 | 4.0 | 0.00 | 0.00 | 0.00 | 56 | 1021.0 |
| 20260906080230 | 85 | 178 | 2.0 | 4.0 | 0.00 | 0.00 | 0.00 | 61 | 1020.9 |
| 20260906073230 | 83 | 198 | 2.0 | 3.0 | 0.00 | 0.00 | 0.00 | 60 | 1020.8 |
| 20260906071730 | 82 | 275 | 2.0 | 3.0 | 0.00 | 0.00 | 0.00 | 61 | 1020.7 |
| 20260906070229 | 81 | 340 | 1.0 | 2.0 | 0.00 | 0.00 | 0.00 | 65 | 1020.7 |
| 20260906064735 | 78 | 339 | 1.0 | 3.0 | 0.00 | 0.00 | 0.00 | 72 | 1020.4 |
| 20260906063230 | 77 | 339 | 0.0 | 0.0 | 0.00 | 0.00 | 0.00 | 69 | 1020.3 |
| 20260906061731 | 75 | 340 | 0.0 | 1.0 | 0.00 | 0.00 | 0.00 | 77 | 1020.2 |
| 20260906060234 | 72 | 339 | 1.0 | 3.0 | 0.00 | 0.00 | 0.00 | 81 | 1019.8 |
| 20260906054731 | 70 | 339 | 2.0 | 3.0 | 0.00 | 0.00 | 0.00 | 83 | 1019.6 |
| 20260906053223 | 69 | 29 | 1.0 | 2.0 | 0.00 | 0.00 | 0.00 | 85 | 1019.4 |
| 20260906051730 | 69 | 30 | 0.0 | 1.0 | 0.00 | 0.00 | 0.00 | 84 | 1019.4 |
| 20260906050221 | 70 | 30 | 0.0 | 0.0 | 0.00 | 0.00 | 0.00 | 84 | 1019.3 |
| 20260906044735 | 71 | 30 | 0.0 | 0.0 | 0.00 | 0.00 | 0.00 | 82 | 1019.1 |
| 20260906043222 | 71 | 30 | 1.0 | 2.0 | 0.00 | 0.00 | 0.00 | 78 | 1018.9 |
| 20260906041727 | 72 | 29 | 0.0 | 1.0 | 0.00 | 0.00 | 0.00 | 76 | 1018.7 |
| 20260906040232 | 73 | 30 | 1.0 | 2.0 | 0.00 | 0.00 | 0.00 | 75 | 1018.8 |
| 20260906034725 | 74 | 30 | 1.0 | 2.0 | 0.00 | 0.00 | 0.00 | 75 | 1018.7 |
| 20260906033230 | 73 | 30 | 1.0 | 3.0 | 0.00 | 0.00 | 0.00 | 75 | 1018.6 |
| 20260906031732 | 73 | 27 | 2.0 | 4.0 | 0.00 | 0.00 | 0.00 | 77 | 1018.5 |
| 20260906030227 | 73 | 28 | 2.0 | 4.0 | 0.00 | 0.00 | 0.00 | 76 | 1018.4 |
| 20260906024732 | 74 | 31 | 2.0 | 3.0 | 0.00 | 0.00 | 0.00 | 75 | 1018.4 |
| 20260906023235 | 75 | 57 | 0.0 | 2.0 | 0.00 | 0.00 | 0.00 | 74 | 1018.2 |
| 20260906021721 | 76 | 57 | 1.0 | 3.0 | 0.00 | 0.00 | 0.00 | 71 | 1018.1 |
| 20260906020238 | 76 | 43 | 2.0 | 5.0 | 0.00 | 0.00 | 0.00 | 71 | 1018.1 |
| 20260906014738 | 77 | 34 | 2.0 | 4.0 | 0.00 | 0.00 | 0.00 | 69 | 1017.9 |
| 20260906013231 | 77 | 24 | 2.0 | 8.0 | 0.00 | 0.00 | 0.00 | 68 | 1017.9 |
| 20260906011733 | 78 | 42 | 3.0 | 9.0 | 0.00 | 0.00 | 0.00 | 66 | 1018.0 |
| 20260906010235 | 78 | 38 | 4.0 | 11.0 | 0.00 | 0.00 | 0.00 | 65 | 1017.9 |
| 20260906004727 | 76 | 38 | 4.0 | 6.0 | 0.00 | 0.00 | 0.00 | 68 | 1017.8 |
| 20260906003227 | 73 | 80 | 3.0 | 6.0 | 0.00 | 0.00 | 0.00 | 77 | 1017.7 |
| 20260906001736 | 68 | 49 | 1.0 | 4.0 | 0.00 | 0.00 | 0.00 | 80 | 1017.7 |
| 20260906000233 | 68 | 61 | 1.0 | 2.0 | 0.00 | 0.00 | 0.00 | 82 | 1017.8 |
| 20260905234728 | 69 | 61 | 0.0 | 2.0 | 0.00 | 0.00 | 0.00 | 79 | 1017.8 |
| 20260905233229 | 70 | 61 | 1.0 | 2.0 | 0.00 | 0.00 | 0.00 | 80 | 1017.7 |
| 20260905231730 | 70 | 61 | 1.0 | 2.0 | 0.00 | 0.00 | 0.00 | 77 | 1017.6 |
| 20260905230232 | 71 | 61 | 1.0 | 2.0 | 0.00 | 0.00 | 0.00 | 74 | 1017.4 |
| 20260905224725 | 71 | 61 | 2.0 | 3.0 | 0.00 | 0.00 | 0.00 | 74 | 1017.4 |
| 20260905223238 | 73 | 120 | 2.0 | 3.0 | 0.00 | 0.00 | 0.00 | 72 | 1017.2 |
| 20260905221730 | 73 | 118 | 2.0 | 4.0 | 0.00 | 0.00 | 0.00 | 75 | 1017.0 |
| 20260905220236 | 75 | 104 | 2.0 | 4.0 | 0.00 | 0.00 | 0.00 | 71 | 1016.7 |
| 20260905214721 | 75 | 145 | 2.0 | 4.0 | 0.00 | 0.00 | 0.00 | 70 | 1016.4 |
| 20260905213232 | 75 | 135 | 2.0 | 5.0 | 0.00 | 0.00 | 0.00 | 67 | 1016.3 |
| 20260905211731 | 73 | 316 | 1.0 | 3.0 | 0.00 | 0.00 | 0.00 | 70 | 1016.1 |
| 20260905210239 | 72 | 315 | 2.0 | 5.0 | 0.00 | 0.00 | 0.00 | 75 | 1015.9 |
| 20260905204733 | 73 | 311 | 1.0 | 2.0 | 0.00 | 0.00 | 0.00 | 80 | 1015.9 |
| 20260905203223 | 74 | 311 | 2.0 | 3.0 | 0.00 | 0.00 | 0.00 | 78 | 1015.8 |
| 20260905201721 | 75 | 311 | 2.0 | 4.0 | 0.00 | 0.00 | 0.00 | 77 | 1015.8 |
| 20260905200234 | 75 | 311 | 2.0 | 4.0 | 0.00 | 0.00 | 0.00 | 77 | 1015.7 |
| 20260905194722 | 75 | 311 | 1.0 | 4.0 | 0.00 | 0.00 | 0.00 | 78 | 1015.6 |
| 20260905193225 | 75 | 296 | 2.0 | 4.0 | 0.00 | 0.00 | 0.00 | 79 | 1015.5 |
| 20260905191727 | 76 | 294 | 1.0 | 4.0 | 0.00 | 0.00 | 0.00 | 76 | 1015.4 |
| 20260905190225 | 77 | 250 | 1.0 | 2.0 | 0.00 | 0.00 | 0.00 | 72 | 1015.2 |
| 20260905184730 | 79 | 250 | 0.0 | 1.0 | 0.00 | 0.00 | 0.00 | 68 | 1015.0 |
| 20260905183226 | 81 | 250 | 0.0 | 2.0 | 0.00 | 0.00 | 0.00 | 64 | 1014.9 |
| 20260905181728 | 83 | 250 | 1.0 | 2.0 | 0.00 | 0.00 | 0.00 | 60 | 1014.6 |
| 20260905180238 | 84 | 250 | 1.0 | 3.0 | 0.00 | 0.00 | 0.00 | 57 | 1014.5 |
| 20260905174731 | 85 | 241 | 1.0 | 5.0 | 0.00 | 0.00 | 0.00 | 56 | 1014.3 |
| 20260905173237 | 86 | 217 | 2.0 | 5.0 | 0.00 | 0.00 | 0.00 | 54 | 1014.2 |
| 20260905171726 | 87 | 311 | 3.0 | 6.0 | 0.00 | 0.00 | 0.00 | 53 | 1014.2 |
| 20260905170231 | 87 | 304 | 2.0 | 4.0 | 0.00 | 0.00 | 0.00 | 51 | 1014.1 |
| 20260905164723 | 88 | 303 | 2.0 | 9.0 | 0.00 | 0.00 | 0.00 | 50 | 1014.0 |
| 20260905163236 | 89 | 292 | 2.0 | 7.0 | 0.00 | 0.00 | 0.00 | 49 | 1014.0 |
| 20260905161728 | 90 | 219 | 3.0 | 7.0 | 0.00 | 0.00 | 0.00 | 49 | 1014.0 |